owner,sensor,date,latitude,longitude,vertical_datum,mass_concentration_of_oxygen_in_sea_water,qcFlag 
SCCF RECON,ioos:station:SCCF:53:1,2008-06-01T00:00:00Z,26.6493,-81.8810,2.039,5.81,1111122 
SCCF RECON,ioos:station:SCCF:53:1,2008-06-01T01:00:00Z,26.6493,-81.8810,2.01,5.56,1111122 
SCCF RECON,ioos:station:SCCF:53:1,2008-06-01T02:00:00Z,26.6493,-81.8810,2.01,5.06,1111122 
SCCF RECON,ioos:station:SCCF:53:1,2008-06-01T03:00:00Z,26.6493,-81.8810,2.06,4.67,1111122 
SCCF RECON,ioos:station:SCCF:53:1,2008-06-01T04:00:00Z,26.6493,-81.8810,2.1,4.52,1111122 
SCCF RECON,ioos:station:SCCF:53:1,2008-06-01T05:00:00Z,26.6493,-81.8810,2.15,4.47,1111122 
SCCF RECON,ioos:station:SCCF:53:1,2008-06-01T06:00:00Z,26.6493,-81.8810,2.2,4.53,1111122 
SCCF RECON,ioos:station:SCCF:53:1,2008-06-01T07:00:00Z,26.6493,-81.8810,2.22,4.57,1111122 
SCCF RECON,ioos:station:SCCF:53:1,2008-06-01T08:00:00Z,26.6493,-81.8810,2.21,4.57,1111122 
SCCF RECON,ioos:station:SCCF:53:1,2008-06-01T09:00:00Z,26.6493,-81.8810,2.18,4.65,1111122 
SCCF RECON,ioos:station:SCCF:53:1,2008-06-01T10:00:00Z,26.6493,-81.8810,2.14,4.46,1111122 
SCCF RECON,ioos:station:SCCF:53:1,2008-06-01T11:00:00Z,26.6493,-81.8810,2.11,4.18,1111122 
SCCF RECON,ioos:station:SCCF:53:1,2008-06-01T12:00:00Z,26.6493,-81.8810,2.09,3.94,1111122 
SCCF RECON,ioos:station:SCCF:53:1,2008-06-01T13:00:00Z,26.6493,-81.8810,2.135,3.69,1111122 
SCCF RECON,ioos:station:SCCF:53:1,2008-06-01T14:00:00Z,26.6493,-81.8810,2.2,3.98,1111122 
SCCF RECON,ioos:station:SCCF:53:1,2008-06-01T15:00:00Z,26.6493,-81.8810,2.25,4.73,1111122 
SCCF RECON,ioos:station:SCCF:53:1,2008-06-01T16:00:00Z,26.6493,-81.8810,2.313,4.86,1111122 
SCCF RECON,ioos:station:SCCF:53:1,2008-06-01T17:00:00Z,26.6493,-81.8810,2.366,4.72,1111122 
SCCF RECON,ioos:station:SCCF:53:1,2008-06-01T18:00:00Z,26.6493,-81.8810,2.4,4.85,1111122 
SCCF RECON,ioos:station:SCCF:53:1,2008-06-01T19:00:00Z,26.6493,-81.8810,2.39,4.61,1111122 
SCCF RECON,ioos:station:SCCF:53:1,2008-06-01T20:00:00Z,26.6493,-81.8810,2.33,4.67,1111122 
SCCF RECON,ioos:station:SCCF:53:1,2008-06-01T21:00:00Z,26.6493,-81.8810,2.273,5.2,1111122 
SCCF RECON,ioos:station:SCCF:53:1,2008-06-01T22:00:00Z,26.6493,-81.8810,2.215,5.71,1111122 
SCCF RECON,ioos:station:SCCF:53:1,2008-06-01T23:00:00Z,26.6493,-81.8810,2.15,5.8,1111122 
SCCF RECON,ioos:station:SCCF:53:1,2008-06-02T00:00:00Z,26.6493,-81.8810,2.098,5.95,1111122 
SCCF RECON,ioos:station:SCCF:53:1,2008-06-02T01:00:00Z,26.6493,-81.8810,2.06,6.48,1111122 
SCCF RECON,ioos:station:SCCF:53:1,2008-06-02T02:00:00Z,26.6493,-81.8810,2.018,6.26,1111122 
SCCF RECON,ioos:station:SCCF:53:1,2008-06-02T03:00:00Z,26.6493,-81.8810,2.01,6.19,1111122 
SCCF RECON,ioos:station:SCCF:53:1,2008-06-02T04:00:00Z,26.6493,-81.8810,2.038,5.62,1111122 
SCCF RECON,ioos:station:SCCF:53:1,2008-06-02T05:00:00Z,26.6493,-81.8810,2.08,5.66,1111122 
SCCF RECON,ioos:station:SCCF:53:1,2008-06-02T06:00:00Z,26.6493,-81.8810,2.13,5.18,1111122 
SCCF RECON,ioos:station:SCCF:53:1,2008-06-02T07:00:00Z,26.6493,-81.8810,2.172,5.01,1111122 
SCCF RECON,ioos:station:SCCF:53:1,2008-06-02T08:00:00Z,26.6493,-81.8810,2.2,5.05,1111122 
SCCF RECON,ioos:station:SCCF:53:1,2008-06-02T09:00:00Z,26.6493,-81.8810,2.2,4.89,1111122 
SCCF RECON,ioos:station:SCCF:53:1,2008-06-02T10:00:00Z,26.6493,-81.8810,2.19,5.05,1111122 
SCCF RECON,ioos:station:SCCF:53:1,2008-06-02T11:00:00Z,26.6493,-81.8810,2.17,5.13,1111122 
SCCF RECON,ioos:station:SCCF:53:1,2008-06-02T12:00:00Z,26.6493,-81.8810,2.139,4.86,1111122 
SCCF RECON,ioos:station:SCCF:53:1,2008-06-02T13:00:00Z,26.6493,-81.8810,2.13,4.67,1111122 
SCCF RECON,ioos:station:SCCF:53:1,2008-06-02T14:00:00Z,26.6493,-81.8810,2.191,4.58,1111122 
SCCF RECON,ioos:station:SCCF:53:1,2008-06-02T15:00:00Z,26.6493,-81.8810,2.251,5.07,1111122 
SCCF RECON,ioos:station:SCCF:53:1,2008-06-02T16:00:00Z,26.6493,-81.8810,2.31,6.1,1111122 
SCCF RECON,ioos:station:SCCF:53:1,2008-06-02T17:00:00Z,26.6493,-81.8810,2.39,5.04,1111122 
SCCF RECON,ioos:station:SCCF:53:1,2008-06-02T18:00:00Z,26.6493,-81.8810,2.431,5.39,1111122 
SCCF RECON,ioos:station:SCCF:53:1,2008-06-02T19:00:00Z,26.6493,-81.8810,2.43,5.05,1111122 
SCCF RECON,ioos:station:SCCF:53:1,2008-06-02T20:00:00Z,26.6493,-81.8810,2.377,5.02,1111122 
SCCF RECON,ioos:station:SCCF:53:1,2008-06-02T21:00:00Z,26.6493,-81.8810,2.346,5.89,1111122 
SCCF RECON,ioos:station:SCCF:53:1,2008-06-02T22:00:00Z,26.6493,-81.8810,2.285,5.7,1111122 
SCCF RECON,ioos:station:SCCF:53:1,2008-06-02T23:00:00Z,26.6493,-81.8810,2.219,5.81,1111122 
SCCF RECON,ioos:station:SCCF:53:1,2008-06-03T00:00:00Z,26.6493,-81.8810,2.174,6.08,1111122 
SCCF RECON,ioos:station:SCCF:53:1,2008-06-03T01:00:00Z,26.6493,-81.8810,2.12,6.11,1111122 
SCCF RECON,ioos:station:SCCF:53:1,2008-06-03T02:00:00Z,26.6493,-81.8810,2.07,5.98,1111122 
SCCF RECON,ioos:station:SCCF:53:1,2008-06-03T03:00:00Z,26.6493,-81.8810,2.02,5.83,1111122 
SCCF RECON,ioos:station:SCCF:53:1,2008-06-03T04:00:00Z,26.6493,-81.8810,1.99,5.66,1111122 
SCCF RECON,ioos:station:SCCF:53:1,2008-06-03T05:00:00Z,26.6493,-81.8810,2.01,5.59,1111122 
SCCF RECON,ioos:station:SCCF:53:1,2008-06-03T06:00:00Z,26.6493,-81.8810,2.04,5.45,1111122 
SCCF RECON,ioos:station:SCCF:53:1,2008-06-03T07:00:00Z,26.6493,-81.8810,2.08,5.39,1111122 
SCCF RECON,ioos:station:SCCF:53:1,2008-06-03T08:00:00Z,26.6493,-81.8810,2.11,5.06,1111122 
SCCF RECON,ioos:station:SCCF:53:1,2008-06-03T09:00:00Z,26.6493,-81.8810,2.15,5.04,1111122 
SCCF RECON,ioos:station:SCCF:53:1,2008-06-03T10:00:00Z,26.6493,-81.8810,2.17,4.85,1111122 
SCCF RECON,ioos:station:SCCF:53:1,2008-06-03T11:00:00Z,26.6493,-81.8810,2.167,4.71,1111122 
SCCF RECON,ioos:station:SCCF:53:1,2008-06-03T12:00:00Z,26.6493,-81.8810,2.144,4.93,1111122 
SCCF RECON,ioos:station:SCCF:53:1,2008-06-03T13:00:00Z,26.6493,-81.8810,2.13,4.89,1111122 
SCCF RECON,ioos:station:SCCF:53:1,2008-06-03T14:00:00Z,26.6493,-81.8810,2.16,4.67,1111122 
SCCF RECON,ioos:station:SCCF:53:1,2008-06-03T15:00:00Z,26.6493,-81.8810,2.212,4.55,1111122 
SCCF RECON,ioos:station:SCCF:53:1,2008-06-03T16:00:00Z,26.6493,-81.8810,2.26,4.65,1111122 
SCCF RECON,ioos:station:SCCF:53:1,2008-06-03T17:00:00Z,26.6493,-81.8810,2.327,4.47,1111122 
SCCF RECON,ioos:station:SCCF:53:1,2008-06-03T18:00:00Z,26.6493,-81.8810,2.38,4.8,1111122 
SCCF RECON,ioos:station:SCCF:53:1,2008-06-03T19:00:00Z,26.6493,-81.8810,2.423,5.39,1111122 
SCCF RECON,ioos:station:SCCF:53:1,2008-06-03T20:00:00Z,26.6493,-81.8810,2.435,5.07,1111122 
SCCF RECON,ioos:station:SCCF:53:1,2008-06-03T21:00:00Z,26.6493,-81.8810,2.38,5.42,1111122 
SCCF RECON,ioos:station:SCCF:53:1,2008-06-03T22:00:00Z,26.6493,-81.8810,2.31,6.0,1111122 
SCCF RECON,ioos:station:SCCF:53:1,2008-06-03T23:00:00Z,26.6493,-81.8810,2.26,5.67,1111122 
SCCF RECON,ioos:station:SCCF:53:1,2008-06-04T00:00:00Z,26.6493,-81.8810,2.2,6.28,1111122 
SCCF RECON,ioos:station:SCCF:53:1,2008-06-04T01:00:00Z,26.6493,-81.8810,2.14,6.31,1111122 
SCCF RECON,ioos:station:SCCF:53:1,2008-06-04T02:00:00Z,26.6493,-81.8810,2.09,6.36,1111122 
SCCF RECON,ioos:station:SCCF:53:1,2008-06-04T03:00:00Z,26.6493,-81.8810,2.04,6.32,1111122 
SCCF RECON,ioos:station:SCCF:53:1,2008-06-04T04:00:00Z,26.6493,-81.8810,1.99,6.33,1111122 
SCCF RECON,ioos:station:SCCF:53:1,2008-06-04T05:00:00Z,26.6493,-81.8810,1.97,6.27,1111122 
SCCF RECON,ioos:station:SCCF:53:1,2008-06-04T06:00:00Z,26.6493,-81.8810,1.97,5.52,1111122 
SCCF RECON,ioos:station:SCCF:53:1,2008-06-04T07:00:00Z,26.6493,-81.8810,2.013,4.73,1111122 
SCCF RECON,ioos:station:SCCF:53:1,2008-06-04T08:00:00Z,26.6493,-81.8810,2.05,4.12,1111122 
SCCF RECON,ioos:station:SCCF:53:1,2008-06-04T09:00:00Z,26.6493,-81.8810,2.09,4.05,1111122 
SCCF RECON,ioos:station:SCCF:53:1,2008-06-04T10:00:00Z,26.6493,-81.8810,2.12,3.74,1111122 
SCCF RECON,ioos:station:SCCF:53:1,2008-06-04T11:00:00Z,26.6493,-81.8810,2.14,3.9,1111122 
SCCF RECON,ioos:station:SCCF:53:1,2008-06-04T12:00:00Z,26.6493,-81.8810,2.14,3.96,1111122 
SCCF RECON,ioos:station:SCCF:53:1,2008-06-04T13:00:00Z,26.6493,-81.8810,2.13,4.41,1111122 
SCCF RECON,ioos:station:SCCF:53:1,2008-06-04T14:00:00Z,26.6493,-81.8810,2.13,4.25,1111122 
SCCF RECON,ioos:station:SCCF:53:1,2008-06-04T15:00:00Z,26.6493,-81.8810,2.18,3.83,1111122 
SCCF RECON,ioos:station:SCCF:53:1,2008-06-04T16:00:00Z,26.6493,-81.8810,2.231,4.3,1111122 
SCCF RECON,ioos:station:SCCF:53:1,2008-06-04T17:00:00Z,26.6493,-81.8810,2.29,4.9,1111122 
SCCF RECON,ioos:station:SCCF:53:1,2008-06-04T18:00:00Z,26.6493,-81.8810,2.36,4.94,1111122 
SCCF RECON,ioos:station:SCCF:53:1,2008-06-04T19:00:00Z,26.6493,-81.8810,2.41,5.14,1111122 
SCCF RECON,ioos:station:SCCF:53:1,2008-06-04T20:00:00Z,26.6493,-81.8810,2.45,5.61,1111122 
SCCF RECON,ioos:station:SCCF:53:1,2008-06-04T21:00:00Z,26.6493,-81.8810,2.46,5.85,1111122 
SCCF RECON,ioos:station:SCCF:53:1,2008-06-04T22:00:00Z,26.6493,-81.8810,2.397,6.16,1111122 
SCCF RECON,ioos:station:SCCF:53:1,2008-06-04T23:00:00Z,26.6493,-81.8810,2.35,6.82,1111122 
SCCF RECON,ioos:station:SCCF:53:1,2008-06-05T00:00:00Z,26.6493,-81.8810,2.3,6.73,1111122 
SCCF RECON,ioos:station:SCCF:53:1,2008-06-05T01:00:00Z,26.6493,-81.8810,2.24,6.74,1111122 
SCCF RECON,ioos:station:SCCF:53:1,2008-06-05T02:00:00Z,26.6493,-81.8810,2.18,6.72,1111122 
SCCF RECON,ioos:station:SCCF:53:1,2008-06-05T03:00:00Z,26.6493,-81.8810,2.13,6.59,1111122 
SCCF RECON,ioos:station:SCCF:53:1,2008-06-05T04:00:00Z,26.6493,-81.8810,2.07,6.58,1111122 
SCCF RECON,ioos:station:SCCF:53:1,2008-06-05T05:00:00Z,26.6493,-81.8810,2.021,6.39,1111122 
SCCF RECON,ioos:station:SCCF:53:1,2008-06-05T06:00:00Z,26.6493,-81.8810,2.0,6.25,1111122 
SCCF RECON,ioos:station:SCCF:53:1,2008-06-05T07:00:00Z,26.6493,-81.8810,2.02,6.0,1111122 
SCCF RECON,ioos:station:SCCF:53:1,2008-06-05T08:00:00Z,26.6493,-81.8810,2.06,5.85,1111122 
SCCF RECON,ioos:station:SCCF:53:1,2008-06-05T09:00:00Z,26.6493,-81.8810,2.1,5.6,1111122 
SCCF RECON,ioos:station:SCCF:53:1,2008-06-05T10:00:00Z,26.6493,-81.8810,2.13,5.37,1111122 
SCCF RECON,ioos:station:SCCF:53:1,2008-06-05T11:00:00Z,26.6493,-81.8810,2.15,5.31,1111122 
SCCF RECON,ioos:station:SCCF:53:1,2008-06-05T12:00:00Z,26.6493,-81.8810,2.137,5.5,1111122 
SCCF RECON,ioos:station:SCCF:53:1,2008-06-05T13:00:00Z,26.6493,-81.8810,2.12,5.4,1111122 
SCCF RECON,ioos:station:SCCF:53:1,2008-06-05T14:00:00Z,26.6493,-81.8810,2.11,5.7,1111122 
SCCF RECON,ioos:station:SCCF:53:1,2008-06-05T15:00:00Z,26.6493,-81.8810,2.12,4.91,1111122 
SCCF RECON,ioos:station:SCCF:53:1,2008-06-05T16:00:00Z,26.6493,-81.8810,2.178,4.83,1111122 
SCCF RECON,ioos:station:SCCF:53:1,2008-06-05T17:00:00Z,26.6493,-81.8810,2.229,5.51,1111122 
SCCF RECON,ioos:station:SCCF:53:1,2008-06-05T18:00:00Z,26.6493,-81.8810,2.289,5.68,1111122 
SCCF RECON,ioos:station:SCCF:53:1,2008-06-05T19:00:00Z,26.6493,-81.8810,2.35,5.68,1111122 
SCCF RECON,ioos:station:SCCF:53:1,2008-06-05T20:00:00Z,26.6493,-81.8810,2.41,5.6,1111122 
SCCF RECON,ioos:station:SCCF:53:1,2008-06-05T21:00:00Z,26.6493,-81.8810,2.49,5.7,1111122 
SCCF RECON,ioos:station:SCCF:53:1,2008-06-05T22:00:00Z,26.6493,-81.8810,2.454,5.67,1111122 
SCCF RECON,ioos:station:SCCF:53:1,2008-06-05T23:00:00Z,26.6493,-81.8810,2.39,5.6,1111122 
SCCF RECON,ioos:station:SCCF:53:1,2008-06-06T00:00:00Z,26.6493,-81.8810,2.34,5.81,1111122 
SCCF RECON,ioos:station:SCCF:53:1,2008-06-06T01:00:00Z,26.6493,-81.8810,2.29,6.17,1111122 
SCCF RECON,ioos:station:SCCF:53:1,2008-06-06T02:00:00Z,26.6493,-81.8810,2.229,5.7,1111122 
SCCF RECON,ioos:station:SCCF:53:1,2008-06-06T03:00:00Z,26.6493,-81.8810,2.178,5.62,1111122 
SCCF RECON,ioos:station:SCCF:53:1,2008-06-06T04:00:00Z,26.6493,-81.8810,2.12,5.43,1111122 
SCCF RECON,ioos:station:SCCF:53:1,2008-06-06T05:00:00Z,26.6493,-81.8810,2.06,5.3,1111122 
SCCF RECON,ioos:station:SCCF:53:1,2008-06-06T06:00:00Z,26.6493,-81.8810,2.01,5.44,1111122 
SCCF RECON,ioos:station:SCCF:53:1,2008-06-06T07:00:00Z,26.6493,-81.8810,1.99,5.25,1111122 
SCCF RECON,ioos:station:SCCF:53:1,2008-06-06T08:00:00Z,26.6493,-81.8810,1.996,4.93,1111122 
SCCF RECON,ioos:station:SCCF:53:1,2008-06-06T09:00:00Z,26.6493,-81.8810,2.03,4.1,1111122 
SCCF RECON,ioos:station:SCCF:53:1,2008-06-06T10:00:00Z,26.6493,-81.8810,2.07,3.93,1111122 
SCCF RECON,ioos:station:SCCF:53:1,2008-06-06T11:00:00Z,26.6493,-81.8810,2.1,3.86,1111122 
SCCF RECON,ioos:station:SCCF:53:1,2008-06-06T12:00:00Z,26.6493,-81.8810,2.112,3.77,1111122 
SCCF RECON,ioos:station:SCCF:53:1,2008-06-06T13:00:00Z,26.6493,-81.8810,2.12,3.68,1111122 
SCCF RECON,ioos:station:SCCF:53:1,2008-06-06T14:00:00Z,26.6493,-81.8810,2.115,4.53,1111122 
SCCF RECON,ioos:station:SCCF:53:1,2008-06-06T15:00:00Z,26.6493,-81.8810,2.12,4.47,1111122 
SCCF RECON,ioos:station:SCCF:53:1,2008-06-06T16:00:00Z,26.6493,-81.8810,2.146,3.97,1111122 
SCCF RECON,ioos:station:SCCF:53:1,2008-06-06T17:00:00Z,26.6493,-81.8810,2.189,4.45,1111122 
SCCF RECON,ioos:station:SCCF:53:1,2008-06-06T18:00:00Z,26.6493,-81.8810,2.233,4.56,1111122 
SCCF RECON,ioos:station:SCCF:53:1,2008-06-06T19:00:00Z,26.6493,-81.8810,2.29,5.67,1111122 
SCCF RECON,ioos:station:SCCF:53:1,2008-06-06T20:00:00Z,26.6493,-81.8810,2.35,6.02,1111122 
SCCF RECON,ioos:station:SCCF:53:1,2008-06-06T21:00:00Z,26.6493,-81.8810,2.381,5.73,1111122 
SCCF RECON,ioos:station:SCCF:53:1,2008-06-06T22:00:00Z,26.6493,-81.8810,2.45,5.9,1111122 
SCCF RECON,ioos:station:SCCF:53:1,2008-06-06T23:00:00Z,26.6493,-81.8810,2.43,5.72,1111122 
SCCF RECON,ioos:station:SCCF:53:1,2008-06-07T00:00:00Z,26.6493,-81.8810,2.38,5.93,1111122 
SCCF RECON,ioos:station:SCCF:53:1,2008-06-07T01:00:00Z,26.6493,-81.8810,2.33,5.95,1111122 
SCCF RECON,ioos:station:SCCF:53:1,2008-06-07T02:00:00Z,26.6493,-81.8810,2.271,5.72,1111122 
SCCF RECON,ioos:station:SCCF:53:1,2008-06-07T03:00:00Z,26.6493,-81.8810,2.22,5.47,1111122 
SCCF RECON,ioos:station:SCCF:53:1,2008-06-07T04:00:00Z,26.6493,-81.8810,2.17,5.49,1111122 
SCCF RECON,ioos:station:SCCF:53:1,2008-06-07T05:00:00Z,26.6493,-81.8810,2.11,5.46,1111122 
SCCF RECON,ioos:station:SCCF:53:1,2008-06-07T06:00:00Z,26.6493,-81.8810,2.05,5.45,1111122 
SCCF RECON,ioos:station:SCCF:53:1,2008-06-07T07:00:00Z,26.6493,-81.8810,2.01,5.29,1111122 
SCCF RECON,ioos:station:SCCF:53:1,2008-06-07T08:00:00Z,26.6493,-81.8810,2.01,5.19,1111122 
SCCF RECON,ioos:station:SCCF:53:1,2008-06-07T09:00:00Z,26.6493,-81.8810,2.02,4.89,1111122 
SCCF RECON,ioos:station:SCCF:53:1,2008-06-07T10:00:00Z,26.6493,-81.8810,2.05,4.56,1111122 
SCCF RECON,ioos:station:SCCF:53:1,2008-06-07T11:00:00Z,26.6493,-81.8810,2.08,4.38,1111122 
SCCF RECON,ioos:station:SCCF:53:1,2008-06-07T12:00:00Z,26.6493,-81.8810,2.1,4.18,1111122 
SCCF RECON,ioos:station:SCCF:53:1,2008-06-07T13:00:00Z,26.6493,-81.8810,2.12,3.99,1111122 
SCCF RECON,ioos:station:SCCF:53:1,2008-06-07T14:00:00Z,26.6493,-81.8810,2.12,4.31,1111122 
SCCF RECON,ioos:station:SCCF:53:1,2008-06-07T15:00:00Z,26.6493,-81.8810,2.099,4.14,1111122 
SCCF RECON,ioos:station:SCCF:53:1,2008-06-07T16:00:00Z,26.6493,-81.8810,2.09,4.32,1111122 
SCCF RECON,ioos:station:SCCF:53:1,2008-06-07T17:00:00Z,26.6493,-81.8810,2.107,4.21,1111122 
SCCF RECON,ioos:station:SCCF:53:1,2008-06-07T18:00:00Z,26.6493,-81.8810,2.131,4.25,1111122 
SCCF RECON,ioos:station:SCCF:53:1,2008-06-07T19:00:00Z,26.6493,-81.8810,2.169,4.52,1111122 
SCCF RECON,ioos:station:SCCF:53:1,2008-06-07T20:00:00Z,26.6493,-81.8810,2.219,5.25,1111122 
SCCF RECON,ioos:station:SCCF:53:1,2008-06-07T21:00:00Z,26.6493,-81.8810,2.255,5.06,1111122 
SCCF RECON,ioos:station:SCCF:53:1,2008-06-07T22:00:00Z,26.6493,-81.8810,2.292,5.48,1111122 
SCCF RECON,ioos:station:SCCF:53:1,2008-06-07T23:00:00Z,26.6493,-81.8810,2.325,5.19,1111122 
SCCF RECON,ioos:station:SCCF:53:1,2008-06-08T00:00:00Z,26.6493,-81.8810,2.318,5.72,1111122 
SCCF RECON,ioos:station:SCCF:53:1,2008-06-08T01:00:00Z,26.6493,-81.8810,2.271,6.37,1111122 
SCCF RECON,ioos:station:SCCF:53:1,2008-06-08T02:00:00Z,26.6493,-81.8810,2.23,5.83,1111122 
SCCF RECON,ioos:station:SCCF:53:1,2008-06-08T03:00:00Z,26.6493,-81.8810,2.19,5.82,1111122 
SCCF RECON,ioos:station:SCCF:53:1,2008-06-08T04:00:00Z,26.6493,-81.8810,2.138,5.96,1111122 
SCCF RECON,ioos:station:SCCF:53:1,2008-06-08T05:00:00Z,26.6493,-81.8810,2.08,5.82,1111122 
SCCF RECON,ioos:station:SCCF:53:1,2008-06-08T06:00:00Z,26.6493,-81.8810,2.027,5.72,1111122 
SCCF RECON,ioos:station:SCCF:53:1,2008-06-08T07:00:00Z,26.6493,-81.8810,1.97,5.57,1111122 
SCCF RECON,ioos:station:SCCF:53:1,2008-06-08T08:00:00Z,26.6493,-81.8810,1.94,5.35,1111122 
SCCF RECON,ioos:station:SCCF:53:1,2008-06-08T09:00:00Z,26.6493,-81.8810,1.95,5.24,1111122 
SCCF RECON,ioos:station:SCCF:53:1,2008-06-08T10:00:00Z,26.6493,-81.8810,1.98,4.62,1111122 
SCCF RECON,ioos:station:SCCF:53:1,2008-06-08T11:00:00Z,26.6493,-81.8810,2.02,4.21,1111122 
SCCF RECON,ioos:station:SCCF:53:1,2008-06-08T12:00:00Z,26.6493,-81.8810,2.07,4.19,1111122 
SCCF RECON,ioos:station:SCCF:53:1,2008-06-08T13:00:00Z,26.6493,-81.8810,2.11,5.73,1111122 
SCCF RECON,ioos:station:SCCF:53:1,2008-06-08T14:00:00Z,26.6493,-81.8810,2.13,4.93,1111122 
SCCF RECON,ioos:station:SCCF:53:1,2008-06-08T15:00:00Z,26.6493,-81.8810,2.127,5.18,1111122 
SCCF RECON,ioos:station:SCCF:53:1,2008-06-08T16:00:00Z,26.6493,-81.8810,2.1,5.36,1111122 
SCCF RECON,ioos:station:SCCF:53:1,2008-06-08T17:00:00Z,26.6493,-81.8810,2.07,5.73,1111122 
SCCF RECON,ioos:station:SCCF:53:1,2008-06-08T18:00:00Z,26.6493,-81.8810,2.051,5.42,1111122 
SCCF RECON,ioos:station:SCCF:53:1,2008-06-08T19:00:00Z,26.6493,-81.8810,2.071,5.16,1111122 
SCCF RECON,ioos:station:SCCF:53:1,2008-06-08T20:00:00Z,26.6493,-81.8810,2.12,5.57,1111122 
SCCF RECON,ioos:station:SCCF:53:1,2008-06-08T21:00:00Z,26.6493,-81.8810,2.192,6.71,1111122 
SCCF RECON,ioos:station:SCCF:53:1,2008-06-08T22:00:00Z,26.6493,-81.8810,2.23,6.38,1111122 
SCCF RECON,ioos:station:SCCF:53:1,2008-06-08T23:00:00Z,26.6493,-81.8810,2.27,6.02,1111122 
SCCF RECON,ioos:station:SCCF:53:1,2008-06-09T00:00:00Z,26.6493,-81.8810,2.32,5.85,1111122 
SCCF RECON,ioos:station:SCCF:53:1,2008-06-09T01:00:00Z,26.6493,-81.8810,2.34,6.14,1111122 
SCCF RECON,ioos:station:SCCF:53:1,2008-06-09T02:00:00Z,26.6493,-81.8810,2.28,6.4,1111122 
SCCF RECON,ioos:station:SCCF:53:1,2008-06-09T03:00:00Z,26.6493,-81.8810,2.22,6.15,1111122 
SCCF RECON,ioos:station:SCCF:53:1,2008-06-09T04:00:00Z,26.6493,-81.8810,2.18,5.91,1111122 
SCCF RECON,ioos:station:SCCF:53:1,2008-06-09T05:00:00Z,26.6493,-81.8810,2.12,5.81,1111122 
SCCF RECON,ioos:station:SCCF:53:1,2008-06-09T06:00:00Z,26.6493,-81.8810,2.06,5.52,1111122 
SCCF RECON,ioos:station:SCCF:53:1,2008-06-09T07:00:00Z,26.6493,-81.8810,2.01,5.47,1111122 
SCCF RECON,ioos:station:SCCF:53:1,2008-06-09T08:00:00Z,26.6493,-81.8810,1.97,4.93,1111122 
SCCF RECON,ioos:station:SCCF:53:1,2008-06-09T09:00:00Z,26.6493,-81.8810,1.99,4.71,1111122 
SCCF RECON,ioos:station:SCCF:53:1,2008-06-09T10:00:00Z,26.6493,-81.8810,2.031,4.39,1111122 
SCCF RECON,ioos:station:SCCF:53:1,2008-06-09T11:00:00Z,26.6493,-81.8810,2.07,4.55,1111122 
SCCF RECON,ioos:station:SCCF:53:1,2008-06-09T12:00:00Z,26.6493,-81.8810,2.12,5.0,1111122 
SCCF RECON,ioos:station:SCCF:53:1,2008-06-09T13:00:00Z,26.6493,-81.8810,2.16,4.82,1111122 
SCCF RECON,ioos:station:SCCF:53:1,2008-06-09T14:00:00Z,26.6493,-81.8810,2.19,4.83,1111122 
SCCF RECON,ioos:station:SCCF:53:1,2008-06-09T15:00:00Z,26.6493,-81.8810,2.21,4.61,1111122 
SCCF RECON,ioos:station:SCCF:53:1,2008-06-09T16:00:00Z,26.6493,-81.8810,2.191,4.58,1111122 
SCCF RECON,ioos:station:SCCF:53:1,2008-06-09T17:00:00Z,26.6493,-81.8810,2.15,5.02,1111122 
SCCF RECON,ioos:station:SCCF:53:1,2008-06-09T18:00:00Z,26.6493,-81.8810,2.11,5.48,1111122 
SCCF RECON,ioos:station:SCCF:53:1,2008-06-09T19:00:00Z,26.6493,-81.8810,2.08,5.63,1111122 
SCCF RECON,ioos:station:SCCF:53:1,2008-06-09T20:00:00Z,26.6493,-81.8810,2.122,4.81,1111122 
SCCF RECON,ioos:station:SCCF:53:1,2008-06-09T21:00:00Z,26.6493,-81.8810,2.106,5.77,1111122 
SCCF RECON,ioos:station:SCCF:53:1,2008-06-09T22:00:00Z,26.6493,-81.8810,2.18,5.5,1111122 
SCCF RECON,ioos:station:SCCF:53:1,2008-06-09T23:00:00Z,26.6493,-81.8810,2.21,5.65,1111122 
SCCF RECON,ioos:station:SCCF:53:1,2008-06-10T00:00:00Z,26.6493,-81.8810,2.23,5.79,1111122 
SCCF RECON,ioos:station:SCCF:53:1,2008-06-10T01:00:00Z,26.6493,-81.8810,2.248,5.49,1111122 
SCCF RECON,ioos:station:SCCF:53:1,2008-06-10T02:00:00Z,26.6493,-81.8810,2.28,5.16,1111122 
SCCF RECON,ioos:station:SCCF:53:1,2008-06-10T03:00:00Z,26.6493,-81.8810,2.24,5.13,1111122 
SCCF RECON,ioos:station:SCCF:53:1,2008-06-10T04:00:00Z,26.6493,-81.8810,2.21,5.29,1111122 
SCCF RECON,ioos:station:SCCF:53:1,2008-06-10T05:00:00Z,26.6493,-81.8810,2.16,4.96,1111122 
SCCF RECON,ioos:station:SCCF:53:1,2008-06-10T06:00:00Z,26.6493,-81.8810,2.11,4.84,1111122 
SCCF RECON,ioos:station:SCCF:53:1,2008-06-10T07:00:00Z,26.6493,-81.8810,2.06,4.87,1111122 
SCCF RECON,ioos:station:SCCF:53:1,2008-06-10T08:00:00Z,26.6493,-81.8810,2.03,4.67,1111122 
SCCF RECON,ioos:station:SCCF:53:1,2008-06-10T09:00:00Z,26.6493,-81.8810,2.01,4.59,1111122 
SCCF RECON,ioos:station:SCCF:53:1,2008-06-10T10:00:00Z,26.6493,-81.8810,2.042,4.34,1111122 
SCCF RECON,ioos:station:SCCF:53:1,2008-06-10T11:00:00Z,26.6493,-81.8810,2.1,3.96,1111122 
SCCF RECON,ioos:station:SCCF:53:1,2008-06-10T12:00:00Z,26.6493,-81.8810,2.14,3.54,1111122 
SCCF RECON,ioos:station:SCCF:53:1,2008-06-10T13:00:00Z,26.6493,-81.8810,2.19,4.26,1111122 
SCCF RECON,ioos:station:SCCF:53:1,2008-06-10T14:00:00Z,26.6493,-81.8810,2.24,4.44,1111122 
SCCF RECON,ioos:station:SCCF:53:1,2008-06-10T15:00:00Z,26.6493,-81.8810,2.261,4.08,1111122 
SCCF RECON,ioos:station:SCCF:53:1,2008-06-10T16:00:00Z,26.6493,-81.8810,2.26,4.65,1111122 
SCCF RECON,ioos:station:SCCF:53:1,2008-06-10T17:00:00Z,26.6493,-81.8810,2.21,4.89,1111122 
SCCF RECON,ioos:station:SCCF:53:1,2008-06-10T18:00:00Z,26.6493,-81.8810,2.16,5.7,1111122 
SCCF RECON,ioos:station:SCCF:53:1,2008-06-10T19:00:00Z,26.6493,-81.8810,2.11,5.27,1111122 
SCCF RECON,ioos:station:SCCF:53:1,2008-06-10T20:00:00Z,26.6493,-81.8810,2.07,5.55,1111122 
SCCF RECON,ioos:station:SCCF:53:1,2008-06-10T21:00:00Z,26.6493,-81.8810,2.047,5.04,1111122 
SCCF RECON,ioos:station:SCCF:53:1,2008-06-10T22:00:00Z,26.6493,-81.8810,2.066,5.23,1111122 
SCCF RECON,ioos:station:SCCF:53:1,2008-06-10T23:00:00Z,26.6493,-81.8810,2.109,4.15,1111122 
SCCF RECON,ioos:station:SCCF:53:1,2008-06-11T00:00:00Z,26.6493,-81.8810,2.14,3.81,1111122 
SCCF RECON,ioos:station:SCCF:53:1,2008-06-11T01:00:00Z,26.6493,-81.8810,2.19,5.2,1111122 
SCCF RECON,ioos:station:SCCF:53:1,2008-06-11T02:00:00Z,26.6493,-81.8810,2.22,6.79,1111122 
SCCF RECON,ioos:station:SCCF:53:1,2008-06-11T03:00:00Z,26.6493,-81.8810,2.23,5.79,1111122 
SCCF RECON,ioos:station:SCCF:53:1,2008-06-11T04:00:00Z,26.6493,-81.8810,2.18,3.86,1111122 
SCCF RECON,ioos:station:SCCF:53:1,2008-06-11T05:00:00Z,26.6493,-81.8810,2.15,3.49,1111122 
SCCF RECON,ioos:station:SCCF:53:1,2008-06-11T06:00:00Z,26.6493,-81.8810,2.11,4.9,1111122 
SCCF RECON,ioos:station:SCCF:53:1,2008-06-11T07:00:00Z,26.6493,-81.8810,2.06,5.79,1111122 
SCCF RECON,ioos:station:SCCF:53:1,2008-06-11T08:00:00Z,26.6493,-81.8810,2.02,3.52,1111122 
SCCF RECON,ioos:station:SCCF:53:1,2008-06-11T09:00:00Z,26.6493,-81.8810,1.99,3.3,1111122 
SCCF RECON,ioos:station:SCCF:53:1,2008-06-11T10:00:00Z,26.6493,-81.8810,2.0,3.19,1111122 
SCCF RECON,ioos:station:SCCF:53:1,2008-06-11T11:00:00Z,26.6493,-81.8810,2.054,3.53,1111122 
SCCF RECON,ioos:station:SCCF:53:1,2008-06-11T12:00:00Z,26.6493,-81.8810,2.1,3.69,1111122 
SCCF RECON,ioos:station:SCCF:53:1,2008-06-11T13:00:00Z,26.6493,-81.8810,2.151,3.41,1111122 
SCCF RECON,ioos:station:SCCF:53:1,2008-06-11T14:00:00Z,26.6493,-81.8810,2.203,3.81,1111122 
SCCF RECON,ioos:station:SCCF:53:1,2008-06-11T15:00:00Z,26.6493,-81.8810,2.24,2.93,1111122 
SCCF RECON,ioos:station:SCCF:53:1,2008-06-11T16:00:00Z,26.6493,-81.8810,2.26,3.61,1111122 
SCCF RECON,ioos:station:SCCF:53:1,2008-06-11T17:00:00Z,26.6493,-81.8810,2.233,2.93,1111122 
SCCF RECON,ioos:station:SCCF:53:1,2008-06-11T18:00:00Z,26.6493,-81.8810,2.18,4.32,1111122 
SCCF RECON,ioos:station:SCCF:53:1,2008-06-11T19:00:00Z,26.6493,-81.8810,2.129,4.5,1111122 
SCCF RECON,ioos:station:SCCF:53:1,2008-06-11T20:00:00Z,26.6493,-81.8810,2.078,4.56,1111122 
SCCF RECON,ioos:station:SCCF:53:1,2008-06-11T21:00:00Z,26.6493,-81.8810,2.04,4.2,1111122 